Weather History for Grand Forks, ND

Change the Weather History Date:

Wednesday, January 9, 2013

  Actual Average Record
Temperature  
Mean Temperature 25 °F 6 °F  
Max Temperature 32 °F 16 °F 47 °F (1958)
Min Temperature 18 °F -3 °F -29 °F (1977)
Degree Days  
Heating Degree Days 40 59  
Month to date heating degree days 444 523  
Since 1 July heating degree days 4202 4382  
Cooling Degree Days 0 0  
Month to date cooling degree days 0 0  
Year to date cooling degree days 0 0  
Moisture  
Dew Point 17 °F    
Average Humidity 70    
Maximum Humidity 81    
Minimum Humidity 58    
Precipitation  
Precipitation 0.00 in 0.02 in 0.17 in (1997)
Month to date precipitation 0.03 0.17  
Year to date precipitation 0.03 0.17  
Snow  
Snow 0.00 in 0.40 in 6.70 in (1997)
Month to date snowfall 0.4 3.3  
Since 1 July snowfall 15.4 23.2  
Snow Depth 3.00 in    
Sea Level Pressure  
Sea Level Pressure 30.03 in    
Wind  
Wind Speed 15 mph (WSW)    
Max Wind Speed 32 mph    
Max Gust Speed 41 mph    
Visibility 10 miles    
Events      
T = Trace of Precipitation, MM = Missing Value Source: NWS Daily Summary

Daily Weather History Graph

Daily Weather History Graph

Search for Another Location

Airport:

Trip Planner

Search our weather history database for the weather conditions in past years. The results will help you decide how hot, cold, wet, or windy it might be!

Date:

Astronomy

Jan. 09, 2013 Rise Set
Actual Time 8:16 AM CST 4:55 PM CST
Civil Twilight 7:41 AM CST 5:31 PM CST
Nautical Twilight 7:02 AM CST 6:10 PM CST
Astronomical Twilight 6:24 AM CST 6:47 PM CST
Moon 5:57 AM CST (1/9) 2:58 PM CST (1/9)
Length of Visible Light 9h 50m
Length of Day
8h 39m
Waning Crescent, 6% of the Moon is Illuminated
Jan 9
Waning Crescent
Jan 11
New
Jan 18
First Quarter
Jan 26
Full
Feb 3
Last Quarter

Hourly Weather History & Observations

Time (CST) Temp. Windchill Dew Point Humidity Pressure Visibility Wind Dir Wind Speed Gust Speed Precip Events Conditions
12:53 AM 30.0 °F 15.2 °F 23.0 °F 75% 29.73 in 10.0 mi West 28.8 mph 38.0 mph N/A   Mostly Cloudy
1:32 AM 28.4 °F 13.8 °F 21.2 °F 74% 29.71 in 10.0 mi WNW 25.3 mph - N/A   Overcast
1:51 AM 28.4 °F 13.5 °F 21.2 °F 74% 29.74 in 10.0 mi West 26.5 mph 32.2 mph N/A   Mostly Cloudy
1:53 AM 28.9 °F 14.3 °F 21.0 °F 72% 29.78 in 10.0 mi West 26.5 mph 34.5 mph N/A   Mostly Cloudy
2:53 AM 27.0 °F 12.2 °F 19.9 °F 75% 29.84 in 10.0 mi WNW 24.2 mph 32.2 mph N/A   Scattered Clouds
3:53 AM 25.0 °F 9.5 °F 18.0 °F 75% 29.89 in 10.0 mi WNW 24.2 mph 31.1 mph N/A   Clear
4:53 AM 23.0 °F 7.2 °F 15.1 °F 72% 29.93 in 10.0 mi WNW 23.0 mph 32.2 mph N/A   Clear
5:53 AM 21.9 °F 9.2 °F 14.0 °F 72% 29.98 in 10.0 mi WNW 13.8 mph - N/A   Clear
6:53 AM 21.0 °F 7.6 °F 15.1 °F 78% 30.05 in 10.0 mi WNW 15.0 mph - N/A   Clear
7:53 AM 19.9 °F 8.6 °F 14.0 °F 78% 30.09 in 10.0 mi NW 10.4 mph - N/A   Clear
8:53 AM 19.0 °F 10.0 °F 12.0 °F 74% 30.12 in 10.0 mi WNW 6.9 mph - N/A   Clear
9:53 AM 21.9 °F 11.0 °F 14.0 °F 72% 30.16 in 10.0 mi WNW 10.4 mph - N/A   Clear
10:53 AM 24.1 °F 14.4 °F 15.1 °F 69% 30.17 in 10.0 mi WNW 9.2 mph - N/A   Partly Cloudy
11:53 AM 26.1 °F 15.0 °F 17.1 °F 69% 30.17 in 10.0 mi WNW 12.7 mph - N/A   Scattered Clouds
12:53 PM 28.0 °F 19.3 °F 16.0 °F 61% 30.15 in 10.0 mi NW 9.2 mph - N/A   Mostly Cloudy
1:53 PM 28.0 °F - 16.0 °F 61% 30.17 in 10.0 mi Calm Calm - N/A   Overcast
2:53 PM 28.0 °F 21.7 °F 18.0 °F 66% 30.18 in 10.0 mi South 5.8 mph - N/A   Overcast
3:53 PM 28.0 °F 18.1 °F 19.0 °F 69% 30.19 in 10.0 mi SSE 11.5 mph - N/A   Overcast
4:53 PM 25.0 °F 14.2 °F 19.0 °F 78% 30.18 in 10.0 mi South 11.5 mph - N/A   Mostly Cloudy
5:53 PM 23.0 °F 11.7 °F 17.1 °F 78% 30.15 in 10.0 mi South 11.5 mph - N/A   Mostly Cloudy
6:53 PM 23.0 °F 10.6 °F 17.1 °F 78% 30.12 in 10.0 mi SSE 13.8 mph - N/A   Mostly Cloudy
7:53 PM 23.0 °F 9.2 °F 17.1 °F 78% 30.08 in 10.0 mi SSE 17.3 mph - N/A   Mostly Cloudy
8:53 PM 23.0 °F 8.7 °F 17.1 °F 78% 30.05 in 10.0 mi SSE 18.4 mph - N/A   Scattered Clouds
9:53 PM 23.0 °F 9.2 °F 17.1 °F 78% 30.04 in 10.0 mi SSE 17.3 mph - N/A   Partly Cloudy
10:53 PM 24.1 °F 11.5 °F 18.0 °F 77% 30.04 in 10.0 mi South 15.0 mph - N/A   Scattered Clouds
11:53 PM 25.0 °F 12.6 °F 19.0 °F 78% 30.01 in 10.0 mi South 15.0 mph - N/A   Partly Cloudy